Provo Municipal Airport
KPVU : now visible

Airfield :











YOU CAN JOIN US ON...

 
LOGIN :

Register | Disclaimer

   EN    FR    IT 

 









Legend :    VFR   Marginal VFR   IFR   Intensive IFR   Very Intensive IFR
Visi :
Ceiling :
>= 8 km
>= 3000ft
5 to 8 km
1000 to 3000 ft
1500m to 5 km
500 to 1000 ft
800 to 1500m
200 to 500 ft
< 800m
< 200 ft
Symbols :   Thunderstorms  Fog  Heavy snow  Heavy precipitations  Wind > 20 kt






- Airport Elevation : 4497 ft


KPVU - Provo Municipal

CURRENT METAR :
  • 222256Z 24008KT 10SM CLR 34/08 A2989 RMK AO2 SLP056 T03440083

EXPIRED METARs :
  • 222156Z VRB03KT 10SM CLR 34/M03 A2991 RMK AO2 SLP063 T03441028
  • 222056Z 27004KT 10SM SCT150 33/01 A2993 RMK AO2 SLP072 T03330006 56012

TAF KPVU
Valid from the 22 at 20:00 until the 23 at 18:00 UTC


222028Z 2220/2318 22010KT P6SM FEW250
FM230300 16012KT P6SM SCT250
FM231200 15005KT P6SM BKN250
KZLC FIR / North America



MET'MAP, your aeronautical weather chart ! - Copyright ORBIFLY December 2007 - Disclaimer

ORBIFLY MET'MAP TEAM :

Programming & Development : Alexandra Zaïnal
Concept & original design : Baudouin d'Aumeries
Assistance for programming : Marc-Olivier Méhu
Technical & hardware support : Manuel Goepfert

Contact : metmap@orbifly.com




SOURCES & CREDITS :

   NOAA       Earth
Advisory